Theta_e
316 319 319 319 319 318 316 314 314 315 316 315 316 316 317 317 316 315 316 319 315 314 319 318 316 318 318 317 313 309 314 315 311 310 307 305 305 303 303 302 301 301 300 299 298 298 298 298 299 299 300 301 302 303 304 305 306 306 308 309 310 312 314 315 317 319 320 321 321 321 322 322 322 322 323 322 322 322 323 322 322 322 323 323 324 324
314 318 320 320 318 317 315 314 312 312 313 313 314 315 317 317 317 316 317 318 314 314 321 320 315 319 319 314 310 310 315 312 308 308 306 305 305 303 303 302 301 301 299 299 298 298 298 298 298 298 298 299 300 300 302 303 303 305 306 306 307 309 311 311 312 313 315 316 318 319 319 319 320 320 320 320 320 320 320 320 320 319 320 320 321 322
315 317 318 316 314 314 314 313 312 314 314 314 316 316 319 319 319 320 319 318 316 314 322 323 316 318 317 311 308 309 310 307 305 306 305 304 304 302 302 302 301 300 299 298 297 297 297 297 297 297 297 297 298 298 300 301 302 303 304 304 305 307 307 308 309 310 310 312 314 316 316 317 317 317 317 318 318 318 318 317 317 317 317 317 317 318
319 320 317 313 312 313 314 314 314 314 315 317 318 318 320 319 318 323 322 320 318 314 318 319 316 318 315 310 309 307 306 305 304 304 304 303 303 302 301 300 300 299 299 298 297 296 296 296 296 296 296 296 297 297 298 299 300 300 301 302 304 304 305 306 307 307 308 309 310 311 312 313 313 312 313 315 314 313 313 312 312 312 312 312 312 313
320 320 316 313 315 315 316 316 315 315 318 322 323 319 320 319 319 322 321 320 320 317 317 315 319 327 321 314 312 308 306 305 304 303 303 303 302 301 300 299 299 298 297 297 296 295 295 295 295 295 295 295 296 296 296 297 298 299 300 301 302 303 304 304 305 306 306 307 308 308 308 308 308 308 308 309 308 308 308 307 307 307 306 306 307 307
317 317 316 317 317 316 317 319 319 319 319 323 326 322 319 320 321 321 320 320 323 323 318 313 322 335 330 319 314 310 308 306 304 304 303 302 301 300 299 299 298 297 297 295 295 294 294 294 294 294 294 294 294 295 295 295 296 297 299 300 301 301 302 303 303 305 305 305 305 305 305 304 304 304 303 303 305 306 307 307 306 304 304 303 303 303
318 315 316 320 321 319 319 321 323 321 319 321 324 322 321 322 321 320 318 319 324 325 318 314 319 328 329 321 314 312 310 306 304 304 303 301 300 299 298 297 297 296 296 295 294 293 293 293 293 293 293 293 293 294 294 294 295 296 297 298 299 299 300 301 301 303 303 303 303 303 302 301 301 300 300 301 302 304 305 306 305 304 304 303 303 302
318 316 317 318 320 321 320 321 321 320 322 324 322 323 325 321 319 321 318 317 322 321 320 320 316 318 322 319 314 313 312 308 305 304 302 301 300 298 297 296 296 295 295 295 294 293 292 292 292 292 292 292 292 293 294 294 294 294 295 296 297 297 298 299 300 301 301 301 301 301 300 300 300 299 299 300 301 301 302 303 303 303 303 303 303 303
317 316 320 319 318 320 322 323 322 319 322 325 322 321 321 318 319 322 318 319 319 314 322 327 316 315 322 322 317 312 313 312 306 304 302 301 299 298 297 296 295 295 294 294 293 292 291 291 292 292 292 292 292 292 293 293 293 293 294 295 296 296 296 297 298 299 299 299 299 299 299 299 298 298 299 300 300 300 300 300 300 300 301 301 302 302
316 314 319 322 320 321 323 323 322 321 320 320 318 320 323 323 322 320 318 321 319 315 322 325 318 318 324 328 323 314 314 316 308 303 302 300 299 297 296 296 295 295 294 293 292 291 291 291 291 291 291 291 291 292 292 292 292 292 293 294 295 294 294 295 296 297 297 297 297 297 297 297 297 297 298 298 298 298 298 298 298 298 298 299 299 300
316 312 314 319 319 321 323 318 316 319 317 315 318 322 327 328 325 323 323 322 319 321 325 323 319 318 321 331 327 315 314 313 307 303 301 299 298 297 296 296 295 295 294 293 291 290 291 291 291 291 291 290 291 291 291 291 291 291 291 292 292 292 293 294 294 295 295 295 295 295 295 295 295 295 296 296 295 295 296 296 296 296 296 297 297 297
316 313 315 318 316 317 320 315 314 317 316 317 322 324 325 328 327 326 325 321 320 327 329 322 318 316 320 329 322 311 308 308 306 304 300 299 298 297 296 295 295 294 294 294 293 291 290 290 290 290 290 290 290 290 290 290 290 290 290 290 290 290 291 291 292 292 292 292 292 292 292 292 292 292 292 291 291 291 292 291 292 293 293 294 294 295
320 319 318 317 314 315 320 319 316 317 317 319 322 323 324 324 324 326 325 322 324 326 323 319 317 316 321 321 312 305 304 305 306 303 299 298 297 297 296 295 295 294 293 293 293 291 289 289 289 289 289 289 289 289 289 289 289 289 289 289 289 288 288 289 289 289 289 289 289 289 289 289 289 289 289 288 288 288 288 288 288 288 288 289 289 290
323 324 318 314 314 317 319 319 319 321 319 316 318 322 325 323 325 330 327 320 322 324 319 317 318 320 325 318 305 302 301 301 302 301 298 297 296 296 296 296 295 294 294 293 292 291 288 288 289 288 289 288 288 288 288 288 288 288 288 288 287 287 287 287 287 287 287 287 287 287 287 287 287 287 286 286 286 286 286 286 286 286 286 286 286 286
324 327 322 318 318 318 315 315 323 328 319 314 318 320 322 326 329 331 328 323 325 326 320 316 318 326 329 315 302 300 299 298 299 298 297 297 297 297 296 296 296 294 294 293 292 290 288 288 289 288 289 289 288 288 288 288 287 287 287 287 287 287 287 287 286 286 286 286 286 286 286 286 286 286 286 286 286 286 286 286 286 286 286 286 286 286
320 326 327 319 314 315 314 315 323 326 318 314 316 318 319 325 326 323 324 324 323 323 321 319 322 322 316 306 299 300 299 298 298 297 297 298 297 296 297 296 295 295 294 293 293 290 288 288 289 289 289 289 289 288 288 288 287 287 287 287 287 287 287 287 287 287 287 286 286 286 286 287 287 287 287 287 287 287 287 287 287 287 287 287 287 287
318 324 325 315 312 315 316 317 318 321 321 315 314 320 321 320 321 322 322 320 317 319 320 321 321 314 309 306 302 300 300 299 298 298 297 298 297 297 297 297 296 295 294 294 293 290 288 288 289 289 290 290 289 289 288 288 287 287 287 287 287 287 287 287 287 287 287 287 287 287 287 287 287 287 287 287 287 287 288 288 287 287 287 288 288 288
320 324 324 316 315 316 313 315 316 316 319 319 318 322 319 315 320 324 323 321 320 320 319 320 321 317 316 315 304 300 302 300 298 299 298 298 298 298 298 297 296 295 294 293 291 289 288 289 289 290 290 290 290 289 288 288 288 287 287 287 287 287 287 287 287 287 287 287 287 287 287 287 287 287 287 287 287 287 287 287 287 287 287 287 287 287
320 323 324 317 317 318 313 315 318 313 312 318 321 319 316 319 324 322 320 322 322 319 320 324 322 317 318 317 309 306 305 301 299 299 299 298 298 299 298 297 296 295 294 293 292 290 289 289 290 290 290 290 289 289 288 288 288 288 288 287 287 287 288 288 288 288 288 288 288 288 288 288 287 288 287 287 287 287 287 287 287 287 287 287 287 287
321 321 324 317 315 318 316 317 321 318 313 314 316 315 316 320 322 320 318 321 322 318 320 322 318 319 322 319 317 313 304 300 300 300 299 299 299 299 298 297 296 296 294 294 294 292 290 290 290 290 290 289 289 289 288 288 288 288 288 288 288 288 288 288 288 288 288 288 288 288 288 288 288 288 288 288 287 287 287 287 287 287 287 287 287 286
319 318 322 320 315 317 319 320 324 324 317 316 317 317 317 317 318 319 317 318 322 321 321 319 316 321 323 314 314 313 303 299 300 300 300 300 299 299 298 297 296 295 294 294 295 292 290 290 290 290 290 290 289 289 289 288 288 288 288 288 288 288 288 288 288 288 288 288 288 288 288 288 288 287 287 287 287 287 287 287 287 286 286 286 286 286
317 318 322 321 319 321 324 320 319 322 323 323 323 320 320 320 319 319 317 318 320 319 321 318 316 321 318 308 307 308 302 300 300 300 301 301 301 300 298 296 295 295 295 295 294 292 290 291 291 291 291 290 290 290 289 288 288 288 288 288 288 288 288 288 288 288 288 288 288 288 287 287 287 287 287 287 287 287 287 286 286 286 286 286 285 285
316 321 322 321 320 320 318 314 312 316 320 322 320 318 320 322 321 320 318 318 318 317 318 319 319 319 311 306 306 303 300 300 299 300 302 302 300 299 297 296 295 295 295 294 293 292 291 292 292 292 291 290 290 289 289 289 288 288 288 288 288 288 288 288 288 288 288 288 288 287 287 287 287 287 287 287 286 286 286 286 285 285 285 285 285 285
316 320 320 321 322 318 314 314 315 315 315 317 316 316 318 320 320 320 318 318 319 318 318 318 319 317 309 306 306 302 300 300 299 300 303 302 300 299 298 297 296 295 296 295 293 291 292 292 292 292 292 291 290 289 289 289 289 289 289 289 289 289 288 288 288 288 288 288 288 287 287 287 287 287 286 286 286 286 285 285 284 284 284 283 284 284
318 318 319 320 322 319 316 316 318 318 317 317 316 315 315 316 317 316 315 317 317 316 317 317 318 316 310 305 305 302 302 302 300 300 302 302 302 300 299 297 296 296 297 297 295 293 291 291 292 292 292 292 291 290 289 289 289 289 289 289 289 289 289 288 288 288 288 288 287 287 286 286 286 286 285 285 285 284 284 284 283 283 283 282 283 283
316 316 318 319 319 318 317 316 318 319 317 314 313 312 312 314 316 314 313 315 316 315 315 315 315 315 310 306 305 304 303 303 303 302 302 302 302 301 299 298 297 297 297 297 297 295 292 290 291 292 291 291 290 290 289 289 289 289 289 289 289 288 288 288 288 288 288 288 287 286 286 285 285 285 284 284 283 283 282 282 282 282 281 281 282 282
316 315 316 317 316 316 316 316 314 314 315 313 312 312 311 311 312 312 312 312 314 313 311 312 313 312 311 308 306 305 305 304 304 303 302 303 302 301 300 298 296 297 297 297 297 295 293 290 290 291 291 290 290 289 289 289 289 289 289 289 288 288 288 287 287 287 287 286 286 285 285 284 284 283 283 282 282 282 281 281 281 280 280 280 280 280
315 313 312 314 314 313 313 315 313 311 312 313 311 311 311 309 308 309 309 310 312 312 310 310 310 310 311 309 307 307 307 305 304 304 303 304 302 299 298 296 296 296 297 297 296 295 295 292 290 290 290 290 289 289 289 289 289 289 288 288 287 287 287 286 286 286 286 285 285 285 285 284 283 282 281 281 281 280 280 280 279 279 279 278 278 278
315 314 311 311 313 312 310 310 310 309 310 311 310 311 310 308 307 308 308 308 310 310 308 308 307 307 308 306 305 307 309 309 308 305 303 302 300 298 296 296 296 296 296 296 295 295 296 293 289 288 289 288 289 289 289 288 288 288 287 287 286 286 286 285 285 285 285 284 284 283 282 281 281 280 279 279 279 278 278 278 277 277 276 276 276 276
313 313 310 310 313 312 308 307 307 306 307 308 308 308 307 306 305 306 306 306 306 307 307 306 306 305 304 303 304 307 308 307 305 303 301 301 300 298 296 296 296 295 295 294 294 294 293 289 287 287 288 288 289 288 287 287 287 286 286 286 285 285 284 284 283 283 283 282 282 281 280 280 279 279 278 278 278 277 277 276 276 275 275 275 275 274
309 310 308 308 311 309 305 305 307 305 305 305 305 304 303 303 303 303 303 303 303 304 304 304 304 304 302 303 304 304 303 301 300 301 302 301 299 297 295 295 295 295 294 294 294 293 290 286 285 286 287 287 287 286 286 286 285 285 285 284 284 284 283 283 283 282 281 281 280 280 280 280 280 279 279 278 278 277 277 276 276 275 275 275 274 274
308 308 306 307 311 307 302 303 305 304 303 302 302 301 300 301 302 301 301 302 302 302 302 302 303 302 302 303 303 300 299 300 301 302 301 298 296 295 295 295 295 295 295 294 292 292 290 286 284 285 286 286 286 285 285 285 284 284 284 284 283 283 282 282 281 281 280 279 279 278 278 278 278 278 277 277 276 276 276 275 275 275 275 274 274 273
306 307 306 306 308 305 300 300 303 303 303 301 299 299 299 299 299 299 299 300 301 301 302 302 301 301 301 302 301 299 298 298 299 299 299 297 294 294 295 295 295 295 295 293 291 290 289 286 285 286 286 286 285 285 284 284 284 284 283 282 282 281 281 280 280 279 278 277 277 276 276 276 275 275 275 274 274 274 274 274 274 273 273 273 272 272
303 307 306 304 306 304 299 299 301 302 301 300 299 300 300 298 298 298 297 298 298 299 301 301 300 301 301 301 301 300 298 296 295 295 294 294 293 293 294 294 294 294 292 290 290 288 286 285 286 286 285 285 284 283 283 283 283 282 281 281 280 280 279 279 278 277 276 275 275 274 274 273 273 273 273 272 272 272 272 272 271 271 271 270 270 269
303 305 303 302 304 302 298 298 301 300 299 298 299 300 299 298 298 298 297 297 298 298 299 299 300 300 301 301 300 299 296 293 293 293 292 292 293 293 293 293 293 292 291 291 289 286 284 285 285 284 283 283 282 282 282 282 281 281 280 280 279 279 278 277 276 275 274 273 272 272 272 272 271 271 271 271 271 270 270 269 268 268 268 267 267 266
303 303 303 302 301 300 299 299 299 298 296 297 298 297 295 296 296 297 297 298 297 297 298 298 299 299 299 299 296 293 292 292 292 293 294 294 293 292 293 294 294 291 290 289 288 286 286 286 285 284 283 282 281 281 281 280 280 280 279 279 278 278 276 275 274 273 272 271 271 271 270 270 269 269 269 269 268 268 268 267 266 266 266 265 265 264
301 302 303 301 299 299 299 299 298 297 296 297 296 295 295 296 297 298 298 297 296 297 297 298 299 297 296 294 291 290 292 292 291 292 293 293 293 292 290 291 290 289 287 287 287 287 287 286 285 283 282 281 280 280 280 279 279 279 278 277 276 276 275 273 272 271 270 270 270 269 269 268 268 267 267 267 266 266 266 265 265 265 264 264 263 263
299 300 301 300 299 298 297 297 298 297 297 297 296 295 296 296 297 298 297 297 298 297 295 296 298 296 293 291 290 290 291 291 292 292 291 291 292 291 289 287 286 287 287 286 286 286 284 284 283 282 281 280 279 279 278 278 278 277 276 275 274 273 272 271 270 269 269 269 268 268 268 267 266 266 265 265 265 265 264 264 264 264 263 263 262 262
297 298 299 299 299 297 296 298 298 296 297 297 296 296 295 294 297 297 296 298 299 296 294 296 298 296 294 292 291 291 291 292 294 294 292 291 290 289 289 287 285 286 287 286 286 285 283 282 282 280 279 279 278 278 277 277 276 275 274 274 273 272 270 269 268 268 267 267 267 267 267 266 266 265 265 264 264 264 263 263 263 263 262 262 262 262
297 297 298 298 298 297 296 297 296 296 297 297 296 296 293 293 296 297 297 298 298 295 295 297 299 297 294 291 290 291 292 294 295 294 292 290 288 286 286 286 285 284 285 284 284 284 282 281 280 279 278 278 277 276 276 275 274 273 273 272 271 270 269 268 267 266 266 266 266 267 267 266 265 265 264 264 264 263 263 262 262 262 261 261 261 261
294 296 297 297 297 297 297 297 296 296 297 296 296 296 294 293 295 295 297 299 297 295 295 296 299 298 293 290 290 291 292 293 294 294 293 290 288 286 285 285 285 285 284 283 283 282 281 279 279 278 277 277 276 275 274 273 272 272 272 271 270 269 267 267 266 266 265 266 266 266 266 265 264 264 264 263 263 262 262 262 261 261 261 261 261 260
293 294 295 296 297 296 296 297 296 296 297 297 295 293 292 293 295 296 298 298 297 297 295 293 295 296 291 289 290 291 292 291 291 293 293 290 289 287 284 282 282 282 281 281 280 280 279 278 277 276 276 275 274 273 272 271 271 271 270 269 268 267 266 266 265 265 265 265 266 265 265 264 264 263 263 263 262 262 262 261 261 261 261 260 260 260
294 294 293 294 296 295 295 295 295 295 295 294 294 293 292 294 298 300 299 295 295 298 297 293 293 292 289 289 290 289 291 291 290 291 291 289 289 287 282 280 281 280 279 279 278 278 278 277 275 275 274 273 272 271 270 270 270 269 269 268 267 266 265 265 264 264 265 265 265 265 264 264 263 263 263 262 262 261 261 261 261 261 260 260 260 260
294 295 295 294 294 295 295 294 294 295 294 292 294 296 295 295 298 300 299 295 294 296 296 294 293 290 288 289 290 289 289 289 289 289 289 288 288 286 281 280 280 279 278 278 277 277 277 276 274 273 272 271 271 270 270 269 269 268 268 268 267 265 264 264 263 263 264 264 264 264 263 263 262 263 262 262 262 261 261 261 261 260 260 260 260 260
294 295 295 295 294 293 295 296 296 296 294 292 293 296 298 297 296 296 297 296 295 295 294 294 293 290 287 287 288 289 289 288 288 289 289 288 288 285 281 280 279 278 277 276 276 275 275 274 273 272 271 270 270 269 269 269 268 268 267 267 265 264 263 263 263 263 264 264 263 263 262 262 262 262 262 261 261 261 261 261 260 260 260 260 260 260
294 292 291 293 294 293 293 295 295 293 293 292 292 294 296 296 294 293 294 295 295 295 293 292 292 292 289 288 288 288 288 288 289 289 288 288 287 283 279 278 278 276 276 275 274 273 273 272 272 270 270 269 269 268 268 268 267 267 266 266 264 263 263 263 262 262 263 263 262 262 262 261 262 261 261 261 261 261 261 261 260 260 260 260 260 260
294 292 290 292 294 293 292 293 292 292 293 293 292 292 293 293 292 291 292 293 293 293 292 291 291 291 290 289 288 289 289 288 289 289 287 288 287 282 278 276 276 275 275 274 273 272 272 271 270 269 269 268 268 267 267 267 267 266 265 264 264 263 262 262 262 262 262 262 262 261 261 261 261 261 260 260 260 260 260 260 260 260 260 260 260 260
293 292 292 292 292 292 292 293 292 292 293 293 291 291 291 291 291 291 290 290 291 291 290 289 289 290 290 290 288 289 289 288 288 288 287 287 285 281 277 275 274 273 273 274 272 271 271 270 270 269 268 268 267 266 266 267 266 265 264 264 263 262 262 262 261 261 261 261 261 261 261 260 260 260 260 260 260 260 260 260 260 260 260 260 261 260
292 292 293 293 292 291 292 292 291 291 292 291 290 290 290 290 291 290 290 289 289 289 289 288 286 287 288 289 289 288 288 288 288 288 287 286 284 279 276 275 274 273 272 272 271 270 270 270 269 268 268 267 266 265 265 266 265 264 263 263 263 262 261 261 261 261 261 261 261 260 260 260 260 260 260 259 260 260 260 260 260 260 261 262 262 262
292 291 291 292 292 291 291 291 291 291 291 291 291 290 290 289 289 289 289 289 289 289 289 289 287 286 285 286 287 287 289 289 287 286 285 284 281 278 275 274 272 272 271 271 270 270 269 269 268 267 267 266 265 264 264 265 265 264 263 263 262 262 261 261 260 260 261 261 260 260 260 260 260 259 259 259 259 259 260 260 261 261 262 262 263 264
291 292 291 291 291 291 291 291 291 290 291 291 291 290 290 290 289 289 290 290 289 289 289 289 289 289 287 285 283 284 287 288 284 283 284 282 278 276 275 273 272 271 270 269 269 269 268 267 267 266 265 265 264 263 264 264 264 263 263 262 262 261 261 260 260 260 260 260 260 260 259 259 259 259 259 259 259 259 259 259 261 262 262 262 263 264
Wind_Speed
3 3 2 5 7 8 11 11 11 7 4 3 3 2 4 5 6 5 6 7 1 1 6 5 4 6 9 9 9 8 6 9 6 8 7 6 6 6 7 7 7 7 7 11 17 21 23 25 27 28 29 31 31 32 32 32 31 29 28 27 26 24 21 19 17 15 12 11 11 10 10 9 8 7 4 4 2 1 1 2 2 3 4 7 9 13
3 4 7 10 11 11 10 9 7 4 2 2 3 4 5 5 6 7 6 6 2 1 5 3 3 8 10 6 7 7 8 9 6 7 7 7 7 6 7 7 6 5 5 10 15 19 24 25 26 28 30 32 32 32 32 32 31 29 28 28 27 24 23 23 21 19 17 15 12 11 10 9 9 9 7 6 6 5 4 4 4 5 5 4 5 8
2 4 12 13 9 6 5 3 5 4 4 3 2 2 4 4 4 7 5 4 2 1 5 4 4 8 8 4 6 7 8 6 6 7 6 6 7 6 6 6 5 5 6 8 11 16 21 22 24 27 30 31 32 32 32 32 31 30 30 29 27 24 23 22 20 19 19 17 15 13 12 10 10 11 9 8 7 7 7 7 7 8 7 7 7 7
4 6 13 10 5 4 5 4 5 3 2 3 4 3 5 4 1 4 5 4 3 1 3 3 4 7 3 5 6 6 6 6 7 8 7 7 7 7 6 6 6 6 7 8 9 13 17 21 25 28 28 30 32 33 33 32 31 31 30 29 28 26 25 23 20 18 16 15 14 14 13 12 11 11 8 7 7 7 8 8 8 9 9 9 9 9
7 7 5 3 6 7 6 6 4 4 2 4 6 6 6 5 5 5 3 4 4 4 2 3 5 5 1 3 3 4 5 6 6 7 8 7 6 6 6 6 7 7 6 8 8 10 15 20 24 26 27 29 31 32 31 31 31 30 30 29 28 27 26 24 22 19 16 15 14 14 14 13 13 13 12 11 11 10 10 10 10 10 10 9 9 9
9 6 3 5 4 6 5 6 4 6 3 4 5 9 9 7 6 4 2 4 4 4 3 4 4 5 4 1 4 3 3 5 4 5 7 6 6 6 6 7 6 7 6 7 8 10 14 18 21 25 27 29 30 29 29 30 30 30 30 28 27 27 27 25 24 21 19 20 20 20 20 20 20 21 20 19 16 13 11 10 10 11 11 11 10 9
6 5 4 5 5 6 5 6 5 7 4 3 5 7 7 5 4 3 2 3 1 3 3 3 1 5 6 4 5 5 4 4 4 5 6 5 6 5 5 6 5 6 6 6 8 10 13 16 19 23 25 27 28 27 28 30 31 32 31 30 29 28 28 26 24 22 22 23 24 24 25 25 24 23 22 21 19 16 12 10 9 10 10 12 12 12
4 2 3 6 5 5 5 5 6 9 7 3 4 5 7 6 5 5 4 2 3 2 4 3 2 3 5 5 5 7 6 4 4 4 5 4 5 5 5 5 6 6 6 6 7 8 12 16 19 20 22 25 26 27 29 31 32 32 31 31 30 30 29 27 25 24 24 24 24 24 24 24 24 23 22 21 20 18 16 14 12 11 9 9 9 10
2 2 4 7 5 5 6 4 6 10 5 6 5 6 6 6 6 5 5 2 1 1 5 4 1 2 5 5 2 4 5 3 4 4 3 4 4 5 5 5 5 5 5 5 6 7 11 15 19 19 20 24 26 28 29 29 30 31 31 32 32 32 30 28 26 26 25 25 24 24 24 24 23 21 20 19 19 19 18 18 18 16 14 11 10 9
0 3 5 7 5 6 5 2 5 8 4 4 5 5 4 4 4 4 5 3 2 1 5 6 3 2 5 6 2 2 4 4 5 4 3 4 3 4 4 4 5 5 5 5 6 9 11 15 18 18 20 24 26 27 27 28 29 30 31 32 33 33 31 30 29 28 27 26 26 26 25 25 24 22 21 20 20 21 20 20 20 19 18 16 14 13
2 2 2 4 4 5 4 2 1 3 4 4 5 5 5 5 4 4 2 4 3 3 6 8 9 5 3 5 3 2 3 4 8 5 4 4 4 4 4 4 4 4 4 4 6 9 12 15 17 18 21 24 25 26 27 28 29 30 31 32 33 32 31 31 31 30 30 29 29 29 28 28 27 26 25 25 26 25 23 23 23 21 20 19 17 16
5 3 2 2 2 4 6 4 3 3 4 6 5 4 3 4 4 4 4 4 1 5 6 5 6 5 4 5 2 2 5 2 7 10 9 8 5 4 4 3 2 3 3 3 4 6 10 13 15 18 21 23 26 27 28 28 28 29 30 30 32 32 31 31 31 31 31 31 31 31 30 31 30 29 29 30 29 29 28 28 27 25 24 23 23 21
3 4 4 4 2 4 6 3 3 5 5 5 4 5 4 2 3 3 3 0 3 6 4 2 4 2 5 4 3 4 7 6 2 9 11 10 8 6 4 3 2 2 3 3 4 4 7 10 13 16 19 23 26 26 26 27 27 28 29 29 31 31 29 29 30 30 30 31 31 30 30 30 29 29 30 30 30 30 30 30 29 29 29 28 28 27
3 5 2 1 3 2 7 5 2 1 1 4 5 4 4 2 1 3 4 1 3 5 2 2 3 2 4 2 4 4 5 5 3 8 8 8 8 7 5 4 3 2 2 2 3 4 6 9 12 15 18 22 24 24 25 26 26 27 28 28 29 29 28 28 28 29 29 29 29 28 28 28 28 28 29 29 29 29 29 29 28 28 28 28 28 28
2 5 2 5 2 3 7 6 5 5 3 4 4 5 5 4 4 4 4 3 4 4 3 1 1 2 3 1 3 3 4 4 6 7 6 6 6 5 5 4 3 2 1 2 3 4 7 10 12 15 18 20 21 23 24 24 24 25 26 26 26 26 26 27 27 27 28 27 27 26 26 26 26 27 27 27 27 27 27 27 26 26 26 27 27 26
3 5 6 3 1 5 6 4 5 6 2 2 3 5 3 4 5 2 3 5 3 3 3 2 2 3 3 1 2 2 4 5 6 6 6 6 4 4 4 4 4 3 2 3 3 5 7 10 12 15 17 18 20 21 22 22 22 23 23 23 23 23 23 24 24 25 25 24 24 25 25 25 25 26 26 26 26 26 26 25 25 25 25 26 26 26
2 4 5 2 1 4 6 5 4 3 2 2 3 3 4 4 6 3 2 0 3 1 4 2 2 2 0 1 1 3 4 4 4 4 5 5 4 4 4 4 4 3 3 3 3 4 6 9 12 14 15 16 17 18 19 19 19 20 20 20 20 20 20 20 20 20 21 21 21 23 24 24 25 25 25 25 25 25 25 25 25 25 25 26 26 27
4 3 5 1 2 3 3 3 2 2 4 5 3 5 3 1 4 4 1 2 3 2 4 1 3 3 1 2 1 2 3 3 3 4 4 4 4 5 5 4 4 3 3 3 3 5 6 9 11 13 14 14 15 15 16 16 16 17 18 18 19 19 19 19 18 18 19 19 20 20 21 22 23 23 23 23 23 24 24 25 26 26 26 27 27 28
3 2 6 1 3 2 2 2 1 3 3 5 4 3 3 2 1 1 2 2 1 3 4 4 4 3 4 4 3 6 8 7 6 5 5 6 6 6 5 5 5 4 3 3 3 4 6 8 10 12 12 12 13 13 14 14 14 15 16 16 16 17 17 17 17 17 18 18 19 19 19 20 20 21 21 22 22 23 24 25 26 27 27 28 28 29
3 2 4 2 2 1 3 2 2 2 2 2 0 1 1 2 4 2 2 3 3 3 4 5 5 4 5 5 7 10 10 10 8 7 7 8 7 7 6 6 6 5 4 4 4 4 6 8 9 10 11 10 11 11 11 12 12 12 12 13 13 14 14 14 15 15 15 15 16 16 16 16 17 18 20 21 21 23 24 24 26 27 28 28 28 29
2 3 3 3 2 0 1 2 5 5 2 2 1 2 1 1 1 1 1 2 3 3 3 4 5 5 4 3 6 8 8 11 12 10 9 8 8 8 7 6 6 5 5 4 4 4 7 9 9 9 9 8 8 7 7 8 8 8 8 8 9 9 10 11 11 11 12 12 12 12 13 13 13 15 17 18 19 20 22 23 25 27 28 28 28 28
2 2 2 2 0 2 4 3 4 6 5 5 4 4 4 2 2 2 4 1 2 3 4 3 5 6 4 2 3 4 8 11 12 11 9 9 10 9 7 6 6 5 6 5 5 6 9 10 9 7 6 6 6 5 5 5 5 5 5 5 5 5 6 6 7 7 8 8 9 9 11 12 12 12 14 16 17 19 21 23 25 26 28 29 29 28
2 3 2 3 3 4 4 3 0 3 4 5 2 2 3 3 4 4 5 3 1 2 2 2 4 4 2 2 2 3 7 9 9 9 10 9 9 8 6 6 5 5 6 6 6 8 10 9 7 7 7 7 7 6 6 6 5 4 3 3 2 2 3 3 3 4 5 6 7 7 9 11 11 11 14 15 16 19 21 23 25 25 26 27 27 27
2 3 1 3 3 3 4 5 4 4 4 2 1 1 3 2 3 4 4 2 2 3 1 1 4 3 1 2 2 0 3 5 7 8 9 8 6 6 7 6 6 6 6 5 6 8 9 8 7 7 8 8 8 7 7 6 5 3 2 0 1 2 2 2 2 3 4 4 5 6 8 9 9 10 13 14 16 19 22 24 25 25 25 25 25 25
1 2 3 1 3 4 4 4 4 5 2 2 2 1 1 3 4 3 1 1 2 4 5 5 6 3 1 3 3 3 2 3 6 7 6 5 5 5 6 5 5 6 6 5 5 6 7 8 8 10 10 10 10 9 8 7 6 4 3 2 3 4 5 5 5 5 6 6 6 6 6 7 7 9 12 13 16 19 21 24 25 25 26 26 26 26
2 2 3 4 6 8 6 3 3 2 1 1 1 1 1 3 5 3 1 2 2 2 4 5 5 3 2 2 1 1 0 4 7 6 5 4 5 6 5 5 6 6 6 6 6 5 6 8 10 11 11 11 11 10 9 8 7 6 6 6 7 8 8 7 7 7 7 7 6 5 7 9 11 14 16 18 20 22 24 25 26 26 27 26 27 28
2 2 2 5 7 8 6 5 4 3 3 2 2 3 4 3 3 3 2 3 2 1 4 7 5 3 4 4 5 5 5 7 8 7 6 6 6 7 6 6 6 5 6 6 5 5 5 7 9 12 12 12 11 9 7 5 4 4 4 4 5 5 4 4 4 4 4 4 6 8 12 15 18 20 21 22 24 25 26 27 28 28 29 28 29 30
3 2 3 4 5 5 5 5 3 3 3 5 4 6 8 6 5 5 4 4 4 3 8 9 5 4 8 8 7 8 7 7 8 8 8 8 7 6 5 5 6 6 6 5 5 6 6 6 9 12 12 9 7 4 2 1 2 3 4 5 5 5 5 5 5 5 7 8 11 15 18 21 22 22 23 24 25 26 27 27 28 29 30 31 32 32
5 3 3 3 3 4 3 4 4 3 2 4 6 9 11 8 5 6 7 8 8 7 10 9 4 6 10 8 6 8 9 9 9 9 7 7 5 4 6 7 7 7 6 6 6 7 7 7 8 9 7 5 3 3 5 5 5 5 5 6 6 6 7 8 8 10 12 14 17 19 21 22 23 23 23 24 25 26 27 28 29 30 31 31 32 32
3 2 1 2 3 4 2 2 3 3 3 5 7 10 11 8 6 7 9 10 8 8 11 10 10 12 12 8 6 7 8 8 6 4 3 4 5 6 7 8 8 7 7 7 8 8 7 7 7 7 7 8 9 9 7 6 5 4 3 4 5 6 8 10 12 14 16 18 20 21 22 23 24 24 25 26 27 28 29 30 31 32 32 32 31 31
1 1 1 3 1 5 5 3 3 1 2 5 9 11 8 5 6 10 10 7 5 9 12 10 10 13 10 4 4 3 3 3 3 4 4 5 6 7 8 8 7 7 8 7 7 6 5 6 9 12 14 14 12 10 9 7 5 3 3 5 6 8 10 12 15 17 19 21 21 22 23 24 25 26 27 28 29 30 32 33 33 34 34 34 34 33
1 1 1 5 2 4 5 2 3 3 4 6 13 14 10 7 9 10 7 6 7 9 9 6 6 10 9 3 1 1 3 5 6 6 5 5 6 8 8 8 8 8 8 7 6 6 6 9 12 15 16 15 12 10 8 6 3 2 5 6 8 10 12 14 16 18 19 20 21 21 22 23 24 25 26 27 29 30 32 33 34 35 35 36 37 36
3 3 1 3 2 4 5 2 1 6 5 8 11 10 10 10 11 10 7 8 9 6 5 6 8 9 7 3 4 4 5 6 7 6 6 6 6 7 8 8 8 8 7 7 7 8 8 11 14 16 15 13 10 8 6 4 1 3 5 6 8 11 13 15 17 18 18 18 18 19 19 21 22 24 25 26 28 29 30 32 33 34 35 36 37 37
3 5 3 3 3 3 6 2 3 2 5 8 4 4 7 9 10 10 10 10 8 6 6 7 7 6 5 5 7 8 7 6 6 6 5 5 6 7 7 7 7 6 7 8 8 8 10 12 14 15 14 12 10 8 6 3 1 2 4 6 9 12 15 16 17 17 16 16 16 17 18 20 22 23 25 26 27 28 29 30 32 33 33 35 36 36
4 4 3 2 3 2 1 3 1 7 9 5 3 0 4 6 7 7 8 9 8 8 8 8 8 7 7 8 8 7 6 5 5 4 4 5 6 7 7 7 6 6 7 7 6 8 12 15 16 16 15 13 11 9 6 4 2 2 4 7 10 13 15 16 16 15 14 14 15 16 18 20 22 23 25 26 27 28 30 30 31 32 32 33 34 34
5 4 2 2 2 1 2 4 6 7 6 7 7 3 1 1 2 1 5 9 9 8 8 8 10 10 9 7 4 2 3 3 1 1 4 5 5 7 7 7 6 7 8 10 11 14 17 18 18 17 16 13 10 8 6 4 2 4 6 9 12 14 14 14 14 13 13 13 15 17 19 20 22 24 25 27 28 29 30 30 30 31 32 33 33 33
6 5 2 2 2 2 3 5 4 5 9 12 9 3 3 3 5 5 4 8 7 6 8 8 9 9 6 3 2 3 4 4 3 3 5 5 5 7 7 8 10 11 13 15 16 17 18 17 17 16 15 13 10 7 4 3 4 6 8 11 12 13 12 12 12 11 12 15 16 18 19 20 22 24 25 26 28 29 30 30 31 31 31 32 34 33
4 5 4 4 3 2 3 4 4 3 7 10 7 3 3 4 6 6 4 6 5 4 7 7 6 6 3 3 4 3 4 4 1 4 6 5 5 6 7 9 14 16 17 17 16 16 16 16 16 15 14 12 9 5 3 4 5 8 10 11 11 11 11 11 10 11 13 16 17 18 19 20 22 23 25 26 27 29 30 30 31 32 30 31 33 34
2 2 4 4 2 2 4 4 5 5 7 7 5 5 3 3 4 5 2 5 6 3 5 5 4 5 6 6 6 5 5 3 5 5 5 6 6 7 7 7 10 13 14 17 19 19 19 17 16 15 12 10 7 5 4 6 7 9 10 10 10 11 10 10 10 12 14 16 17 18 19 21 22 23 24 26 27 28 29 30 31 31 30 30 32 34
3 1 3 5 5 6 6 5 4 5 6 5 6 5 2 3 6 8 1 7 6 4 5 6 6 7 7 7 6 6 6 6 6 6 6 8 8 8 9 8 10 13 15 17 18 19 19 17 16 14 11 8 6 5 5 7 8 9 9 10 10 10 10 10 12 13 15 16 17 19 20 21 22 23 24 26 27 28 28 29 30 30 31 31 32 33
1 1 3 5 8 9 9 6 3 4 5 5 6 6 4 4 6 3 6 6 4 6 6 7 8 8 8 7 6 5 7 7 6 5 6 8 7 7 8 10 13 16 18 19 19 19 19 17 14 12 10 7 5 5 6 8 8 8 9 9 10 10 10 11 13 14 15 17 18 19 20 21 21 23 24 25 26 28 28 28 29 30 30 31 32 31
2 1 2 4 5 5 5 4 3 5 5 7 5 3 3 3 2 5 6 4 5 7 7 7 8 7 8 9 8 8 8 7 5 4 5 8 8 6 8 11 13 14 16 18 19 19 18 16 13 11 9 6 5 5 7 8 8 8 9 9 10 10 11 12 14 15 16 17 19 20 21 21 21 23 24 25 26 28 29 29 28 29 29 30 31 30
5 4 3 4 4 2 2 4 4 5 5 8 7 1 2 5 5 5 3 3 4 6 6 7 7 6 7 9 9 9 9 7 5 5 6 8 8 8 11 15 17 17 18 19 19 19 17 15 13 10 8 5 5 6 7 7 8 8 9 10 9 10 11 13 13 15 16 18 20 21 21 22 22 23 24 25 25 27 29 30 29 28 29 29 29 29
4 5 4 4 3 4 4 5 5 4 3 7 8 4 5 7 6 5 4 4 4 4 5 5 7 8 9 9 10 10 9 7 6 6 6 7 8 8 12 16 18 19 20 20 19 18 16 14 12 9 6 5 5 6 7 7 8 9 9 10 10 10 12 13 13 15 17 19 20 21 22 22 23 24 24 24 25 26 28 30 29 28 28 28 27 27
6 5 5 3 3 4 5 6 5 3 3 6 7 6 7 8 6 6 6 4 4 5 5 5 6 8 9 10 10 9 8 8 8 7 7 9 9 9 12 15 18 20 20 20 19 17 15 13 11 8 6 5 6 7 7 8 9 10 10 10 10 11 12 13 14 16 18 20 21 22 23 23 24 24 24 23 24 25 27 29 29 28 28 28 27 26
5 4 3 1 1 2 2 3 4 3 3 6 8 7 7 7 5 6 6 5 6 6 5 5 7 8 9 9 9 8 8 9 9 8 8 9 9 9 12 14 16 19 20 20 19 17 13 10 8 7 6 5 6 7 7 8 9 10 10 10 10 10 11 12 14 17 19 20 21 22 23 24 24 24 24 24 23 24 26 28 28 27 28 28 27 26
3 3 3 2 2 1 2 3 5 5 5 6 8 8 7 7 5 5 6 6 7 7 7 7 9 8 8 8 9 10 11 10 10 9 7 7 7 8 11 13 16 18 20 21 19 16 13 10 8 7 6 6 6 7 8 8 8 9 10 10 9 10 11 12 15 17 19 21 22 22 22 23 24 25 25 25 24 25 26 27 26 26 27 28 28 27
2 2 3 5 6 4 4 6 7 6 6 5 6 7 6 7 8 7 7 7 7 7 7 7 7 7 6 7 9 11 11 11 10 9 8 7 7 8 11 14 17 18 18 18 17 14 11 9 7 7 6 6 6 8 8 8 7 8 9 8 8 9 11 13 15 17 20 21 22 22 22 23 24 25 25 25 25 25 26 28 27 26 26 28 29 28
2 1 3 4 4 3 5 6 5 5 7 8 8 8 8 8 9 9 8 8 7 8 8 7 8 8 8 9 9 10 10 11 9 9 9 7 6 8 12 15 17 18 18 17 15 12 10 8 7 7 6 6 7 8 8 7 7 7 7 7 8 9 12 14 15 18 20 21 21 22 23 23 24 24 25 26 26 25 26 27 27 26 27 28 29 28
2 5 4 4 3 4 6 7 7 5 6 8 10 10 10 9 8 9 9 8 8 9 9 9 9 10 10 12 12 9 9 11 10 8 8 7 8 11 15 17 17 17 17 15 12 10 8 7 6 6 6 7 7 8 8 7 7 6 6 6 8 9 12 14 16 18 20 21 21 22 23 23 24 24 24 25 25 26 28 29 27 25 24 27 28 28
8 10 6 6 6 9 9 9 8 6 7 9 10 9 8 7 7 8 9 10 10 10 9 9 10 10 10 11 12 11 9 9 9 9 7 6 10 14 17 18 19 17 16 13 11 8 7 6 6 6 7 7 8 8 8 8 7 5 5 6 8 9 12 13 15 18 20 21 22 23 22 22 23 24 24 24 24 25 26 29 32 31 26 23 24 26
Wind_Direction
116 119 179 209 212 206 210 209 211 226 220 224 257 265 257 260 270 265 264 277 352 2 275 265 275 287 283 289 320 340 16 21 33 92 87 74 74 61 64 58 48 50 36 28 31 33 35 39 42 44 47 50 52 51 52 54 54 55 57 58 58 58 61 64 64 68 74 77 76 78 83 85 84 83 88 95 90 75 308 296 294 286 271 258 251 247
107 160 221 222 214 213 218 213 211 239 248 224 245 270 275 256 262 258 250 280 337 162 267 299 341 295 286 311 355 9 41 31 23 80 83 78 76 63 64 58 49 48 30 32 33 34 36 39 43 45 47 49 48 47 49 50 51 55 57 56 57 58 61 61 61 64 65 66 69 73 76 77 78 73 66 64 54 40 26 15 7 0 351 327 296 275
144 208 237 232 213 220 248 197 174 209 209 195 202 224 264 256 278 281 272 304 345 193 270 317 337 281 284 15 36 36 59 46 31 64 71 76 78 63 58 54 48 43 31 32 32 32 35 38 42 46 46 48 48 48 49 51 52 53 54 55 56 58 59 60 61 63 64 67 70 74 77 78 77 71 65 63 52 36 23 16 12 10 7 1 348 327
190 234 243 232 179 188 253 230 169 170 192 205 202 198 249 244 204 276 289 319 327 314 279 315 315 276 275 72 62 51 73 72 56 63 61 64 74 68 62 53 46 45 35 33 32 29 33 36 40 42 44 47 49 49 48 49 51 51 52 54 55 57 58 59 61 64 69 72 74 77 80 81 79 72 68 67 55 43 34 28 23 20 16 11 3 354
223 242 238 165 144 173 227 258 202 167 237 243 218 213 238 241 214 225 280 323 332 351 356 9 338 298 259 120 102 80 81 73 62 69 63 52 62 67 64 54 44 43 36 34 34 27 30 35 38 41 45 48 48 47 47 49 52 53 55 56 57 57 57 59 61 65 70 75 77 79 77 73 69 61 54 48 43 45 45 41 37 30 25 21 14 4
247 243 117 110 142 162 194 253 223 173 223 283 237 217 220 229 228 223 359 13 14 340 326 34 7 298 312 357 165 146 84 68 53 59 63 50 48 53 52 46 35 35 35 34 36 32 33 36 40 42 44 47 47 47 49 52 55 58 58 60 60 59 58 58 61 64 69 71 71 72 68 62 58 52 46 40 36 35 36 39 41 36 31 30 28 23
251 233 160 168 168 146 176 246 231 167 157 279 248 207 193 184 179 164 85 59 90 254 282 49 103 262 314 322 201 169 109 90 69 54 62 53 47 49 48 44 34 31 29 28 34 34 36 40 42 42 44 48 49 49 53 56 58 60 60 61 62 61 59 59 61 65 68 70 69 70 68 64 61 55 49 47 46 42 37 41 43 38 35 34 33 31
229 217 182 194 187 170 199 250 222 160 137 236 237 139 134 141 157 158 116 136 217 256 314 358 149 243 293 280 214 159 128 106 88 69 64 56 50 52 48 45 41 35 27 28 35 33 36 43 46 45 47 53 56 56 58 59 59 61 62 63 64 63 62 61 62 65 66 69 69 69 69 66 63 60 56 55 55 51 47 47 43 37 35 30 27 25
201 185 200 178 168 197 214 228 187 155 150 237 204 127 123 140 155 147 120 149 250 6 309 294 153 247 262 271 268 146 167 170 140 137 104 79 61 55 52 46 41 35 30 30 37 35 34 45 51 51 52 57 61 61 61 62 63 64 64 66 66 64 63 63 64 66 66 67 69 68 67 63 60 61 61 60 57 53 49 46 43 41 40 37 32 26
90 220 200 149 152 207 211 214 174 162 183 217 152 105 61 74 93 94 112 118 40 8 251 234 184 207 262 278 293 158 219 213 164 156 132 104 76 64 56 49 43 34 28 28 39 41 41 51 57 58 58 59 62 64 64 65 65 65 65 66 66 64 63 64 65 66 66 65 65 65 63 61 58 56 57 58 55 50 46 42 38 37 39 39 38 35
318 295 190 147 181 196 149 96 124 156 155 129 97 60 25 24 43 45 75 88 59 279 251 221 193 186 265 280 230 181 264 201 156 151 150 128 100 88 69 52 50 38 29 28 38 43 48 57 60 61 61 60 62 64 65 65 65 65 65 66 66 64 63 64 65 66 66 64 64 63 63 62 59 56 55 54 52 49 47 43 37 34 33 33 32 30
329 318 248 249 207 132 101 82 23 23 83 101 84 68 36 340 9 21 359 47 114 253 267 231 181 165 222 265 284 317 326 288 164 164 163 149 134 121 99 78 60 44 40 42 48 46 48 53 54 56 58 58 60 62 62 63 64 66 66 67 67 64 63 64 64 65 65 65 65 64 64 63 62 60 58 56 54 52 51 47 42 39 36 35 33 29
307 247 266 309 275 137 108 87 3 7 38 82 98 89 75 324 349 357 306 335 213 253 272 174 132 157 233 247 319 333 338 328 183 152 152 148 142 138 131 131 105 60 45 51 59 51 50 51 50 52 56 58 59 60 61 62 64 65 65 67 67 64 64 65 65 65 65 64 64 63 63 63 62 61 60 59 56 54 52 49 45 42 38 36 35 33
295 292 309 339 288 176 138 152 208 283 105 135 144 129 122 149 195 265 265 273 261 269 279 153 132 286 266 285 337 333 337 334 63 112 127 133 134 141 147 149 129 92 58 55 66 61 61 62 60 61 63 63 63 62 63 63 64 65 65 66 67 65 65 66 66 66 65 64 64 64 63 63 62 61 60 59 57 54 51 48 45 42 38 36 34 32
210 299 239 178 240 190 168 181 165 141 153 173 157 138 146 160 167 214 226 209 248 280 297 257 190 212 224 286 328 342 3 20 66 91 101 107 122 136 136 139 137 122 95 69 74 70 69 70 72 72 70 68 67 65 65 65 65 66 65 64 65 64 64 65 65 65 65 64 63 63 62 61 60 59 57 56 53 50 48 44 42 38 34 31 29 28
169 260 251 231 220 165 176 196 134 113 122 195 130 115 166 189 162 179 208 179 185 294 296 236 219 206 176 206 335 32 46 54 67 83 100 111 128 135 138 150 156 146 103 81 79 73 74 77 77 76 74 72 69 67 66 65 65 66 65 65 65 63 63 63 63 63 62 61 59 56 55 53 51 50 49 49 46 44 42 39 36 32 28 26 23 21
145 268 278 341 345 183 184 188 142 133 184 159 128 176 215 181 132 122 265 148 96 257 270 214 230 288 31 216 306 63 70 76 81 97 123 145 155 153 166 176 177 166 113 92 97 92 86 84 81 78 75 74 72 71 69 66 66 67 66 66 66 64 63 61 60 60 58 56 53 51 48 45 43 42 41 40 38 36 34 31 28 25 21 18 15 14
154 263 280 166 193 242 207 164 79 59 138 130 173 214 203 118 85 97 223 339 40 243 274 262 217 241 233 240 274 108 154 160 155 160 165 179 185 183 189 192 194 173 134 122 122 109 96 88 85 81 77 76 77 74 73 72 70 70 65 63 62 60 59 57 56 55 52 50 47 45 43 41 39 38 36 34 32 28 25 22 19 15 12 10 7 5
129 237 283 229 179 273 4 92 17 356 87 130 193 206 117 132 258 85 162 218 226 238 275 290 267 236 207 203 193 202 200 183 180 188 189 198 200 199 200 205 206 180 152 146 135 118 103 96 90 85 82 83 82 77 76 76 73 70 65 61 59 57 55 53 50 49 47 45 43 39 37 35 33 31 28 25 22 19 16 13 9 6 3 1 360 358
108 163 275 296 207 282 33 88 200 270 1 64 105 305 62 161 180 166 170 171 186 225 258 289 299 274 232 198 186 201 190 168 175 190 196 203 202 202 199 198 198 181 172 163 151 151 122 108 100 93 92 93 91 86 84 82 79 74 68 62 60 56 53 49 46 46 44 42 40 36 34 30 25 22 18 15 12 9 7 3 359 357 354 353 353 351
102 166 244 302 328 105 159 205 191 185 174 117 169 231 251 218 169 229 226 134 146 189 222 267 279 266 254 194 184 199 175 165 179 183 190 202 204 207 205 196 192 179 175 174 160 157 137 125 120 111 109 112 110 105 102 97 92 85 76 69 63 56 53 49 46 45 43 41 37 32 29 22 15 14 9 6 4 360 357 354 350 348 346 346 347 346
170 171 202 234 290 187 220 245 184 174 163 151 178 200 191 169 144 245 265 235 140 183 188 217 262 271 265 216 198 193 170 175 185 177 181 201 204 206 209 197 188 178 173 174 165 159 154 148 143 139 140 144 142 140 137 130 119 107 94 82 69 59 55 47 41 41 37 34 29 22 18 11 4 2 358 355 353 350 348 345 343 342 340 340 341 341
130 111 167 224 213 211 246 313 12 168 136 134 160 161 155 144 131 179 236 245 219 230 154 164 254 273 277 260 259 205 176 179 183 172 177 199 205 200 202 192 179 176 175 173 172 173 173 172 170 168 167 165 162 160 160 160 150 138 126 101 71 43 41 33 28 27 19 15 12 6 4 1 355 351 349 347 345 343 341 339 338 336 335 335 334 334
90 96 171 262 308 318 313 335 354 25 79 124 273 111 144 163 147 173 207 187 183 236 219 253 255 245 349 326 321 123 163 168 180 186 188 196 199 195 196 186 172 175 177 176 180 185 187 189 190 189 188 187 185 184 181 181 177 169 168 160 337 329 336 334 330 340 343 345 347 348 351 351 347 343 342 339 336 334 333 333 332 332 332 331 329 328
195 146 140 201 311 319 324 343 348 350 35 170 258 280 154 129 116 115 150 134 181 219 218 240 251 241 337 348 14 56 84 184 203 209 207 198 197 205 205 187 177 180 180 181 187 191 194 198 202 202 201 198 198 200 198 197 200 204 217 251 293 307 309 310 307 306 310 313 317 325 333 335 333 334 333 330 328 327 328 329 329 329 329 329 328 326
177 179 145 166 223 246 245 226 239 270 249 178 256 268 194 140 136 133 143 199 218 218 215 232 247 273 333 343 316 351 339 224 231 235 245 237 212 211 210 194 187 183 183 190 194 194 194 195 195 194 196 200 203 205 209 216 228 246 263 276 288 296 294 295 296 291 288 290 295 306 319 329 333 334 334 332 330 330 329 329 328 328 328 328 327 325
114 193 187 186 220 234 214 210 214 160 148 203 257 242 216 205 175 153 159 209 217 278 264 242 220 241 275 237 213 228 220 220 234 240 245 244 230 216 205 194 191 186 185 189 189 189 188 191 198 198 200 206 209 214 228 249 274 294 306 310 315 318 315 313 313 310 302 303 315 323 328 333 335 335 334 332 330 329 327 325 325 325 325 325 323 322
111 239 234 185 231 232 169 187 206 131 157 212 242 255 245 229 174 164 200 212 182 214 258 251 193 188 250 239 199 210 223 226 236 237 236 240 236 214 186 176 183 184 182 182 182 187 189 198 209 210 211 218 226 236 243 69 60 60 59 55 49 39 27 19 3 350 341 333 330 328 327 329 330 330 329 327 326 325 323 322 322 322 321 320 320 319
121 239 242 155 243 246 161 173 185 151 193 222 227 244 252 245 191 174 212 215 194 216 254 264 235 219 251 254 208 203 216 223 231 231 228 232 224 177 158 167 178 181 181 186 192 195 198 208 215 215 218 218 190 149 126 116 102 84 70 52 39 22 6 0 350 341 336 333 330 329 328 329 329 328 327 326 326 325 324 324 323 322 321 320 319 318
123 229 231 143 257 276 286 260 215 179 212 240 241 239 243 248 217 201 226 226 211 229 252 262 263 259 262 254 225 217 215 219 237 239 209 210 192 166 167 174 179 184 185 191 200 205 205 202 192 177 162 149 141 135 128 123 112 89 58 28 7 352 347 343 338 336 334 332 330 328 327 326 325 325 325 325 326 325 324 323 323 322 322 321 319 318
86 197 155 90 358 299 311 293 253 200 207 252 264 256 251 262 250 237 237 231 221 239 249 255 263 269 267 230 205 235 202 181 224 234 219 207 184 169 172 178 182 189 197 202 204 202 186 166 157 150 145 142 140 138 136 131 123 96 32 5 346 337 337 333 330 330 330 327 325 323 321 319 318 318 319 320 320 319 319 319 319 320 319 318 318 317
97 178 38 69 84 283 309 285 267 7 16 292 273 264 252 246 250 249 235 207 210 227 242 250 254 261 262 238 220 247 167 172 208 214 210 206 185 171 173 182 189 196 200 199 185 169 159 158 159 156 150 146 145 143 139 131 109 33 352 341 331 328 327 325 325 325 324 322 320 319 318 318 317 317 317 317 316 316 317 317 317 317 316 316 316 315
129 142 119 97 144 273 301 280 303 36 12 286 268 251 236 233 242 252 252 233 217 196 202 225 232 246 256 272 282 248 199 200 216 205 198 200 190 183 183 184 194 202 193 178 169 166 168 169 165 158 151 149 150 145 134 127 71 344 329 322 322 322 321 321 322 321 320 319 318 318 319 318 317 316 316 316 316 315 315 315 315 316 316 315 315 314
140 141 162 151 148 262 285 333 42 18 262 261 256 174 199 217 226 236 248 248 224 187 201 230 244 256 256 247 251 246 225 210 207 202 201 189 176 186 198 196 198 198 180 170 174 175 172 167 160 153 150 152 153 148 143 148 173 289 299 309 315 318 319 319 319 319 320 320 318 317 316 315 314 315 314 315 316 315 315 316 316 316 316 315 315 314
157 151 163 144 128 204 267 63 95 242 245 269 327 206 198 209 211 223 254 261 236 214 222 237 248 249 239 236 245 249 229 198 184 193 201 189 175 177 192 205 202 184 171 173 178 176 173 167 159 154 153 155 155 154 161 176 197 248 287 306 312 314 316 316 316 320 321 318 315 313 314 315 315 316 316 317 317 317 317 318 317 317 317 316 314 313
159 158 151 145 144 153 134 155 210 250 289 303 288 267 173 188 174 190 282 269 242 216 208 225 241 241 238 247 259 226 169 143 100 254 228 219 202 182 186 202 196 179 175 179 180 181 180 175 168 164 160 158 161 165 174 194 237 278 298 309 310 309 311 311 314 319 316 311 312 313 315 317 318 318 319 319 319 319 319 318 317 317 317 315 313 312
150 150 145 183 203 171 178 215 243 318 312 286 269 226 175 192 163 155 244 263 246 203 185 205 236 241 238 240 190 143 117 81 29 299 255 245 219 195 196 191 177 178 185 186 186 184 181 176 171 169 165 162 166 174 186 226 274 293 302 307 307 306 307 309 312 312 307 307 311 314 317 319 319 319 319 319 318 317 317 317 316 316 316 315 312 311
161 173 170 186 214 134 147 238 269 291 267 262 264 260 233 203 173 163 205 266 270 216 184 192 214 217 191 161 165 146 94 87 266 258 250 250 223 193 198 190 181 184 188 184 178 171 168 168 168 167 168 168 171 183 218 261 288 301 306 308 308 306 308 310 309 305 304 308 313 315 318 319 318 318 317 316 316 315 315 315 314 314 314 312 309 309
154 193 160 165 206 161 164 220 229 231 248 250 251 261 245 177 147 107 69 281 268 217 172 169 176 185 180 175 171 146 121 163 242 251 229 224 216 193 188 187 184 188 184 178 174 169 166 167 166 166 171 176 182 206 247 277 296 305 308 309 306 306 308 308 304 304 306 311 314 316 318 319 317 317 316 315 314 314 313 312 311 311 311 309 307 307
139 174 173 186 215 211 209 230 231 237 255 243 230 239 215 116 89 82 37 270 252 204 180 170 180 199 194 179 163 156 169 198 233 240 208 201 210 199 182 174 174 172 168 169 173 172 170 169 169 170 176 183 197 229 266 288 300 306 307 306 302 303 305 302 302 306 309 313 316 317 318 318 317 317 316 314 314 313 311 310 309 309 309 308 307 306
140 209 206 211 225 222 218 228 251 261 247 222 222 223 182 96 74 122 223 238 206 201 202 182 191 202 185 170 169 184 209 215 218 219 192 183 198 202 185 178 176 171 169 171 172 172 170 172 176 178 181 191 215 251 279 294 304 308 305 302 301 302 302 301 304 310 313 315 317 317 317 318 317 317 316 315 314 312 309 309 308 308 308 308 307 306
152 177 242 222 224 229 223 225 261 276 234 184 188 224 173 137 183 221 226 211 179 198 203 193 206 207 182 182 193 205 222 219 198 193 185 182 190 189 169 163 161 161 165 169 171 173 173 172 175 181 186 204 234 267 290 299 308 309 303 301 303 302 301 304 310 313 315 316 316 316 317 318 318 318 317 316 315 312 309 310 310 309 309 308 307 306
163 159 221 225 195 160 202 218 233 260 224 155 140 149 203 190 211 216 215 221 201 192 187 195 212 208 189 198 210 218 228 224 198 195 196 193 194 181 168 167 166 165 168 170 173 179 179 176 178 185 197 220 252 283 300 306 309 306 302 302 304 303 304 308 313 314 314 316 316 317 319 320 320 319 318 317 316 312 310 311 311 310 309 308 306 306
179 164 196 226 189 146 183 215 215 231 214 159 155 181 206 207 204 172 169 212 223 198 184 198 219 214 199 204 217 221 228 231 219 207 200 204 207 190 177 176 174 171 173 175 177 180 182 181 182 187 204 234 267 290 301 305 306 302 301 304 305 304 307 311 313 313 315 316 317 318 320 321 320 319 318 318 317 313 311 311 311 310 310 308 306 306
220 191 179 203 198 171 186 214 223 217 198 188 192 200 210 221 213 173 171 199 218 210 193 196 223 223 206 208 220 221 223 228 223 211 200 202 205 194 185 183 179 176 176 174 175 178 182 184 187 193 213 243 272 289 296 302 303 300 301 305 305 306 310 312 313 314 315 316 318 320 321 320 319 319 318 318 317 313 310 310 309 308 309 308 307 307
235 190 156 178 237 223 215 215 219 219 196 202 215 219 221 230 214 178 189 219 227 221 205 199 219 223 208 205 215 224 229 228 223 220 211 202 198 189 181 177 175 174 174 171 172 177 181 184 192 203 222 250 271 282 292 300 298 295 298 302 304 308 311 312 313 314 316 317 319 320 321 320 319 320 319 318 316 313 310 309 307 306 307 307 306 304
269 167 160 210 223 243 257 214 206 211 198 192 212 229 242 252 238 198 199 222 232 228 220 214 221 224 212 201 205 222 233 229 224 226 218 199 194 187 177 173 172 173 175 175 175 179 183 186 197 212 232 256 271 280 292 299 294 291 296 300 305 310 311 311 315 316 316 318 320 321 322 321 319 319 318 317 316 314 311 310 307 304 304 304 304 301
258 146 166 215 219 223 240 228 216 225 234 218 214 225 238 246 246 233 222 229 238 240 235 225 219 222 227 217 210 220 234 233 224 223 217 202 195 188 180 178 176 173 175 178 178 181 187 196 208 226 244 260 272 282 293 298 292 291 296 300 305 310 311 313 317 317 317 319 320 321 322 321 319 319 317 316 316 314 312 311 309 304 302 303 301 295
132 174 186 189 205 240 259 247 236 253 270 263 246 235 231 233 240 245 245 244 244 247 249 243 226 221 226 229 222 220 230 236 228 215 211 203 190 185 183 181 178 175 175 177 181 187 198 211 225 239 253 266 276 285 292 294 291 293 297 300 305 311 314 317 319 318 319 320 321 321 322 321 320 319 317 316 315 314 313 312 309 303 301 303 301 293
155 231 205 140 179 237 234 225 222 230 251 256 249 239 231 226 230 241 252 255 249 242 245 251 249 241 234 236 234 221 223 238 231 208 203 201 188 183 180 175 173 175 176 178 185 195 211 229 240 249 263 272 277 286 292 292 291 295 296 299 308 314 316 319 320 319 320 321 321 320 321 321 321 320 318 316 316 315 315 316 312 305 300 299 299 295
218 226 194 160 211 234 231 223 214 206 229 248 253 248 234 214 209 223 239 245 244 242 238 241 253 257 251 246 239 222 222 238 223 193 189 195 186 182 178 175 175 175 177 183 191 202 218 233 243 254 265 272 277 284 290 290 291 296 298 302 311 315 317 320 320 318 319 321 320 321 322 321 320 320 319 317 317 316 315 316 318 318 313 304 299 299